When you browse on this site, cookies collect data to enhance your experience and personalize the content and advertising you see.
Visit our Privacy Policy to learn more. By continuing to use the site, you agree to this use of cookies and data.
  • In United Kingdom
  • List of Countries
  • For 7 days
  • Water Temperature
  • Satellite Maps
  • Weather Map
  • Weather Widgets
  • user-avatar
    Login

    Hourly Weather Les Ulis

    Today, 16 December, Sunday

    Time Temperature Precipitation Wind Pressure Humidity
    00:00 +3°C° 0.2 mm 3 mps 743 mmHg 97%
    01:00 +3°C° 0 mm 3 mps 744 mmHg 97%
    02:00 +3°C° 0 mm 3 mps 744 mmHg 97%
    03:00 +2°C° 0 mm 3 mps 744 mmHg 97%
    04:00 +2°C° 0 mm 3 mps 744 mmHg 97%
    05:00 +1°C° 0 mm 3 mps 745 mmHg 96%
    06:00 +1°C° 0 mm 3 mps 745 mmHg 96%
    07:00 +1°C° 0 mm 3 mps 745 mmHg 96%
    08:00 +1°C° 0 mm 3 mps 746 mmHg 96%
    09:00 +1°C° 0 mm 3 mps 746 mmHg 95%
    10:00 +2°C° 0 mm 3 mps 746 mmHg 94%
    11:00 +3°C° 0 mm 3 mps 746 mmHg 92%
    12:00 +4°C° 0 mm 3 mps 746 mmHg 91%
    13:00 +4°C° 0 mm 3 mps 746 mmHg 92%
    14:00 +4°C° 0 mm 3 mps 745 mmHg 93%
    15:00 +4°C° 0 mm 3 mps 745 mmHg 94%
    16:00 +4°C° 0.1 mm 3 mps 745 mmHg 94%
    17:00 +4°C° 0.1 mm 3 mps 745 mmHg 95%
    18:00 +4°C° 0.1 mm 3 mps 745 mmHg 95%
    19:00 +4°C° 0.7 mm 4 mps 745 mmHg 95%
    20:00 +3°C° 0.7 mm 5 mps 745 mmHg 94%
    21:00 +5°C° 0.7 mm 5 mps 745 mmHg 94%
    22:00 +5°C° 0.4 mm 5 mps 745 mmHg 92%
    23:00 +4°C° 0.4 mm 6 mps 746 mmHg 91%

    Tomorrow, 17 December, Monday

    Time Temperature Precipitation Wind Pressure Humidity
    00:00 +4°C° 0.4 mm 6 mps 746 mmHg 90%
    01:00 +4°C° 0 mm 6 mps 747 mmHg 89%
    02:00 +4°C° 0 mm 6 mps 747 mmHg 88%
    03:00 +4°C° 0 mm 6 mps 748 mmHg 88%
    04:00 +3°C° 0 mm 5 mps 748 mmHg 88%
    05:00 +3°C° 0 mm 5 mps 749 mmHg 89%
    06:00 +3°C° 0 mm 5 mps 750 mmHg 89%
    07:00 +4°C° 0 mm 4 mps 751 mmHg 89%
    08:00 +4°C° 0 mm 4 mps 752 mmHg 90%
    09:00 +4°C° 0 mm 4 mps 753 mmHg 90%
    10:00 +5°C° 0 mm 4 mps 753 mmHg 87%
    11:00 +6°C° 0 mm 4 mps 753 mmHg 84%
    12:00 +8°C° 0 mm 3 mps 754 mmHg 80%
    13:00 +7°C° 0 mm 3 mps 754 mmHg 82%
    14:00 +7°C° 0 mm 3 mps 754 mmHg 83%
    15:00 +7°C° 0 mm 2 mps 754 mmHg 84%
    16:00 +5°C° 0 mm 3 mps 754 mmHg 87%
    17:00 +5°C° 0 mm 3 mps 755 mmHg 89%
    18:00 +4°C° 0 mm 3 mps 755 mmHg 92%
    19:00 +4°C° 0 mm 3 mps 755 mmHg 92%
    20:00 +4°C° 0 mm 3 mps 755 mmHg 93%
    21:00 +4°C° 0 mm 3 mps 755 mmHg 93%
    22:00 +4°C° 0 mm 3 mps 755 mmHg 94%
    23:00 +4°C° 0 mm 3 mps 755 mmHg 94%

    Day after tomorrow, 18 December, Tuesday

    Time Temperature Precipitation Wind Pressure Humidity
    00:00 +4°C° 0 mm 3 mps 755 mmHg 95%
    01:00 +3°C° 0 mm 4 mps 754 mmHg 95%
    02:00 +3°C° 0 mm 4 mps 754 mmHg 95%
    03:00 +3°C° 0 mm 4 mps 754 mmHg 95%
    04:00 +3°C° 0 mm 4 mps 753 mmHg 93%
    05:00 +3°C° 0 mm 4 mps 753 mmHg 91%
    06:00 +2°C° 0 mm 5 mps 752 mmHg 89%
    07:00 +2°C° 0 mm 5 mps 752 mmHg 86%
    08:00 +2°C° 0 mm 5 mps 751 mmHg 82%
    09:00 +2°C° 0 mm 6 mps 751 mmHg 78%
    10:00 +3°C° 0 mm 6 mps 750 mmHg 72%
    11:00 +4°C° 0 mm 6 mps 749 mmHg 66%
    12:00 +5°C° 0 mm 6 mps 748 mmHg 60%
    13:00 +5°C° 0 mm 6 mps 748 mmHg 61%
    14:00 +5°C° 0 mm 6 mps 747 mmHg 62%
    15:00 +6°C° 0 mm 5 mps 746 mmHg 63%
    16:00 +6°C° 0 mm 5 mps 746 mmHg 64%
    17:00 +6°C° 0 mm 5 mps 746 mmHg 66%
    18:00 +6°C° 0 mm 5 mps 746 mmHg 68%
    19:00 +6°C° 0 mm 5 mps 746 mmHg 69%
    20:00 +5°C° 0 mm 6 mps 746 mmHg 71%
    21:00 +7°C° 0 mm 6 mps 746 mmHg 73%
    22:00 +7°C° 0.7 mm 6 mps 746 mmHg 78%
    23:00 +7°C° 0.7 mm 6 mps 746 mmHg 83%

    19 December, Wednesday

    Time Temperature Precipitation Wind Pressure Humidity
    00:00 +7°C° 0.7 mm 6 mps 746 mmHg 88%
    01:00 +7°C° 0.5 mm 5 mps 746 mmHg 89%
    02:00 +7°C° 0.5 mm 5 mps 746 mmHg 90%
    03:00 +7°C° 0.5 mm 4 mps 747 mmHg 92%
    04:00 +6°C° 0.1 mm 4 mps 747 mmHg 92%
    05:00 +6°C° 0.1 mm 4 mps 747 mmHg 93%
    06:00 +6°C° 0.1 mm 4 mps 747 mmHg 93%
    07:00 +6°C° 0 mm 4 mps 747 mmHg 93%
    08:00 +6°C° 0 mm 4 mps 748 mmHg 93%
    09:00 +6°C° 0 mm 4 mps 748 mmHg 93%
    10:00 +6°C° 0 mm 4 mps 748 mmHg 89%
    11:00 +7°C° 0 mm 4 mps 748 mmHg 84%
    12:00 +8°C° 0 mm 4 mps 748 mmHg 79%
    13:00 +8°C° 0 mm 4 mps 747 mmHg 80%
    14:00 +9°C° 0 mm 3 mps 747 mmHg 81%
    15:00 +9°C° 0 mm 3 mps 747 mmHg 82%
    16:00 +8°C° 0.2 mm 3 mps 747 mmHg 85%
    17:00 +7°C° 0.2 mm 2 mps 748 mmHg 88%
    18:00 +7°C° 0.2 mm 2 mps 748 mmHg 91%
    19:00 +6°C° 0 mm 2 mps 748 mmHg 91%
    20:00 +6°C° 0 mm 2 mps 749 mmHg 92%
    21:00 +5°C° 0 mm 2 mps 749 mmHg 93%
    22:00 +5°C° 0 mm 2 mps 749 mmHg 93%
    23:00 +5°C° 0 mm 2 mps 749 mmHg 93%

    20 December, Thursday

    Time Temperature Precipitation Wind Pressure Humidity
    00:00 +4°C° 0 mm 2 mps 749 mmHg 93%
    01:00 +4°C° 0 mm 2 mps 749 mmHg 93%
    02:00 +3°C° 0 mm 3 mps 750 mmHg 93%
    03:00 +3°C° 0 mm 3 mps 750 mmHg 93%
    04:00 +2°C° 0 mm 3 mps 750 mmHg 93%
    05:00 +2°C° 0 mm 3 mps 750 mmHg 93%
    06:00 +2°C° 0 mm 3 mps 751 mmHg 93%
    07:00 +2°C° 0 mm 3 mps 751 mmHg 92%
    08:00 +3°C° 0 mm 3 mps 752 mmHg 91%
    09:00 +3°C° 0 mm 3 mps 752 mmHg 90%
    10:00 +4°C° 0 mm 4 mps 752 mmHg 86%
    11:00 +5°C° 0 mm 4 mps 752 mmHg 83%
    12:00 +6°C° 0 mm 4 mps 752 mmHg 79%
    13:00 +6°C° 0 mm 4 mps 752 mmHg 80%
    14:00 +7°C° 0 mm 3 mps 752 mmHg 81%
    15:00 +7°C° 0 mm 3 mps 753 mmHg 82%
    16:00 +5°C° 0 mm 3 mps 753 mmHg 85%
    17:00 +5°C° 0 mm 3 mps 753 mmHg 87%
    18:00 +4°C° 0 mm 3 mps 754 mmHg 90%
    19:00 +4°C° 0 mm 3 mps 754 mmHg 90%
    20:00 +4°C° 0 mm 3 mps 754 mmHg 90%
    21:00 +4°C° 0 mm 3 mps 754 mmHg 89%
    22:00 +4°C° 0 mm 4 mps 754 mmHg 89%
    23:00 +4°C° 0 mm 4 mps 753 mmHg 89%

    21 December, Friday

    Time Temperature Precipitation Wind Pressure Humidity
    00:00 +5°C° 0 mm 5 mps 753 mmHg 89%
    01:00 +5°C° 0.1 mm 5 mps 753 mmHg 89%
    02:00 +5°C° 0.1 mm 6 mps 752 mmHg 90%
    03:00 +7°C° 0.1 mm 6 mps 752 mmHg 91%
    04:00 +6°C° 0.7 mm 7 mps 751 mmHg 90%
    05:00 +7°C° 0.7 mm 8 mps 751 mmHg 90%
    06:00 +7°C° 0.7 mm 8 mps 750 mmHg 89%
    07:00 +9°C° 0.8 mm 8 mps 750 mmHg 89%
    08:00 +9°C° 0.8 mm 8 mps 750 mmHg 88%
    09:00 +10°C° 0.8 mm 9 mps 750 mmHg 88%
    10:00 +10°C° 0.9 mm 9 mps 749 mmHg 87%
    11:00 +10°C° 0.9 mm 9 mps 749 mmHg 86%
    12:00 +10°C° 0.9 mm 9 mps 749 mmHg 86%
    13:00 +10°C° 1 mm 9 mps 749 mmHg 86%
    14:00 +10°C° 1 mm 9 mps 749 mmHg 86%
    15:00 +11°C° 1 mm 9 mps 749 mmHg 86%
    16:00 +11°C° 0.5 mm 9 mps 748 mmHg 85%
    17:00 +11°C° 0.5 mm 9 mps 748 mmHg 85%
    18:00 +11°C° 0.5 mm 9 mps 748 mmHg 85%
    19:00 +11°C° 0.2 mm 9 mps 748 mmHg 85%
    20:00 +11°C° 0.2 mm 9 mps 749 mmHg 85%
    21:00 +11°C° 0.2 mm 9 mps 749 mmHg 85%
    22:00 +11°C° 0.1 mm 8 mps 749 mmHg 85%
    23:00 +11°C° 0.1 mm 8 mps 749 mmHg 85%
    Show more